DUMMY MASS 1 [-]

Last updated on Wed Jun 28 2023 00:03:02 GMT+0000 (Coordinated Universal Time)

1 24925U 97048A 23178.09653157 .00000559 00000+0 61203-4 0 9991 2 24925 86.3349 108.4580 0007303 160.8116 199.3385 14.85743482398261
UTC large
Height (km)
Speed (km/s)
/
Latitude / Longitude
Inclination (degrees)
Orbital Period (minutes)
Azimuth
Elevation
Range (km)
Doppler Factor

Next 0 passes for location: London (51.5072 / 0.1276)

Sorry there are no passes over London.
DUMMY MASS 1 [-]